 82022462,2006-04-30T21:18:21.184, 1207.51, 5552913, 165.63,   0.15, 2575139, 2575039, 2574947, 2575019, 2575159,      79,    1.18,   0.222,   15.24,   33.46,    0.00
 82022463,2006-04-30T21:18:25.184, 1211.51, 5571740, 165.69,   0.20, 2575146, 2575042, 2574963, 2575029, 2575166,      75,    1.29,   0.123,   16.38,   35.14,    0.16
 82022464,2006-04-30T21:18:29.184, 1215.51, 5590567, 165.75,   0.25, 2575149, 2574981, 2574942, 2575007, 2575171,      88,   -0.03,   0.055,    9.40,   25.61,    0.18
 82022465,2006-04-30T21:18:33.184, 1219.51, 5609484, 165.83,   0.27, 2575126, 2575039, 2574975, 2575040, 2575149,      66,    0.64,   0.022,   14.27,   24.82,    0.04
 82022466,2006-04-30T21:18:37.086, 1223.41, 5627981, 165.90,   0.28, 2575049, 2574984, 2574950, 2575015, 2575072,      44,   -0.23,   0.024,   11.93,   18.50,    2.77
 82022467,2006-04-30T21:18:40.989, 1227.32, 5646389, 165.99,   0.29, 2575093, 2575031, 2574987, 2575053, 2575116,      40,   -0.52,   0.030,   16.63,   23.75,    0.10
 82022468,2006-04-30T21:18:44.892, 1231.22, 5664826, 166.07,   0.29, 2575124, 2575057, 2574991, 2575057, 2575147,      46,    0.71,   0.031,   16.71,   29.47,    0.13
 82022469,2006-04-30T21:18:48.795, 1235.12, 5683323, 166.16,   0.29, 2575148, 2575039, 2574979, 2575045, 2575171,      45,   -0.06,   0.033,   17.53,   29.75,    0.16
 82022470,2006-04-30T21:18:53.183, 1239.51, 5704099, 166.25,   0.29, 2575144, 2575050, 2574980, 2575047, 2575167,      57,    0.65,   0.034,   16.64,   28.75,    0.08
 82022471,2006-04-30T21:18:57.086, 1243.41, 5722596, 166.34,   0.29, 2575060, 2575007, 2574968, 2575035, 2575083,      45,   -0.16,   0.034,   14.50,   19.61,    0.01
 82022472,2006-04-30T21:19:00.989, 1247.32, 5741213, 166.42,   0.29, 2575150, 2575045, 2574980, 2575047, 2575173,      65,    0.48,   0.036,   15.78,   27.02,    0.03
 82022473,2006-04-30T21:19:04.892, 1251.22, 5759710, 166.51,   0.29, 2575157, 2575035, 2574978, 2575046, 2575180,      58,   -0.12,   0.036,   15.15,   26.12,    0.06
 82022474,2006-04-30T21:19:08.795, 1255.12, 5778267, 166.59,   0.29, 2575188, 2575054, 2575001, 2575069, 2575211,      72,   -0.43,   0.029,   14.67,   25.21,    0.02
 82022475,2006-04-30T21:19:13.183, 1259.51, 5799193, 166.69,   0.29, 2575216, 2575031, 2575012, 2575081, 2575239,      88,   -0.74,   0.030,   11.81,   21.43,    0.15
 82022476,2006-04-30T21:19:17.086, 1263.41, 5817810, 166.77,   0.29, 2575182, 2575029, 2574995, 2575064, 2575206,      68,   -0.79,   0.031,   14.12,   23.72,    0.03
 82022477,2006-04-30T21:19:20.989, 1267.32, 5836397, 166.86,   0.29, 2575133, 2575020, 2574995, 2575064, 2575157,      70,   -0.12,   0.029,   13.53,   20.29,    0.21
 82022478,2006-04-30T21:19:24.892, 1271.22, 5854984, 166.94,   0.29, 2575190, 2575053, 2574999, 2575068, 2575214,      61,   -0.36,   0.031,   14.26,   24.94,    0.03
 82022479,2006-04-30T21:19:28.795, 1275.12, 5873631, 167.02,   0.29, 2575157, 2575053, 2575001, 2575071, 2575181,      66,    0.31,   0.030,   12.22,   24.11,    0.07
 82022480,2006-04-30T21:19:33.183, 1279.51, 5894617, 167.12,   0.29, 2575122, 2575015, 2575005, 2575075, 2575146,      62,   -0.04,   0.028,   10.09,   17.67,    0.33
 82022481,2006-04-30T21:19:37.086, 1283.41, 5913324, 167.20,   0.29, 2575128, 2575052, 2574997, 2575068, 2575152,      44,    0.01,   0.030,   16.02,   28.10,    0.17
 82022482,2006-04-30T21:19:40.989, 1287.32, 5932001, 167.28,   0.29, 2575119, 2575072, 2575011, 2575081, 2575143,      49,    0.73,   0.030,   14.26,   23.93,    0.11
 82022483,2006-04-30T21:19:44.892, 1291.22, 5950648, 167.36,   0.29, 2575154, 2575090, 2574998, 2575069, 2575179,      73,    0.53,   0.030,   12.45,   27.29,    0.02
 82022484,2006-04-30T21:19:48.795, 1295.12, 5969385, 167.44,   0.29, 2575130, 2575067, 2575007, 2575078, 2575154,      72,    0.31,   0.032,   11.68,   21.98,    0.15
 82022485,2006-04-30T21:19:53.183, 1299.51, 5990460, 167.53,   0.30, 2575135, 2575056, 2575004, 2575076, 2575160,      68,    0.37,   0.033,   10.52,   22.77,    0.10
 82022486,2006-04-30T21:19:57.086, 1303.41, 6009197, 167.61,   0.29, 2575119, 2575076, 2575003, 2575075, 2575143,      53,    0.69,   0.030,   13.96,   27.90,    0.10
 82022487,2006-04-30T21:20:00.989, 1307.32, 6027994, 167.69,   0.29, 2575094, 2575065, 2574988, 2575061, 2575119,      62,    0.64,   0.028,   12.98,   24.68,    0.02
 82022488,2006-04-30T21:20:04.892, 1311.22, 6046731, 167.77,   0.29, 2575128, 2575069, 2575014, 2575086, 2575153,      63,    1.07,   0.031,   13.43,   29.93,    0.01
 82022489,2006-04-30T21:20:08.795, 1315.12, 6065558, 167.85,   0.29, 2575124, 2575063, 2574985, 2575058, 2575149,      70,    0.66,   0.027,   10.27,   22.32,    0.02
 82022490,2006-04-30T21:20:13.183, 1319.51, 6086694, 167.93,   0.29, 2575120, 2575093, 2575010, 2575083, 2575145,      67,    1.04,   0.028,   11.90,   27.51,    0.05
 82022491,2006-04-30T21:20:17.086, 1323.41, 6105521, 168.01,   0.29, 2575116, 2575087, 2575014, 2575087, 2575141,      53,    1.98,   0.030,   12.32,   29.65,    0.17
 82022492,2006-04-30T21:20:20.989, 1327.32, 6124348, 168.09,   0.30, 2575103, 2575091, 2575019, 2575093, 2575128,      50,    1.29,   0.032,   12.69,   26.33,    0.14
 82022493,2006-04-30T21:20:24.892, 1331.22, 6143205, 168.17,   0.29, 2575103, 2575080, 2575000, 2575074, 2575129,      59,    1.29,   0.029,   12.27,   27.77,    0.11
 82022494,2006-04-30T21:20:28.795, 1335.12, 6162062, 168.24,   0.30, 2575110, 2575094, 2575016, 2575090, 2575136,      60,    0.95,   0.033,   10.30,   25.78,    0.07
 82022495,2006-04-30T21:20:33.183, 1339.51, 6183257, 168.33,   0.29, 2575119, 2575107, 2575027, 2575102, 2575145,      56,    1.26,   0.029,   12.93,   31.12,    0.12
 82022496,2006-04-30T21:20:37.086, 1343.41, 6202144, 168.41,   0.29, 2575117, 2575097, 2575022, 2575097, 2575143,      64,    1.20,   0.025,   11.03,   26.97,    0.08
 82022497,2006-04-30T21:20:40.989, 1347.32, 6221091, 168.48,   0.30, 2575128, 2575099, 2575018, 2575093, 2575154,      63,    1.48,   0.029,   10.42,   26.79,    0.11
 82022498,2006-04-30T21:20:44.892, 1351.22, 6240008, 168.56,   0.30, 2575130, 2575099, 2575011, 2575087, 2575156,      74,    1.41,   0.034,   10.50,   26.93,    0.07
 82022499,2006-04-30T21:20:48.795, 1355.12, 6258955, 168.63,   0.30, 2575130, 2575078, 2575003, 2575079, 2575156,      61,    0.86,   0.034,    9.73,   24.77,    0.06
 82022500,2006-04-30T21:20:53.183, 1359.51, 6280210, 168.72,   0.29, 2575124, 2575099, 2575030, 2575107, 2575151,      60,    1.49,   0.027,   11.41,   30.75,    0.14
 82022501,2006-04-30T21:20:57.086, 1363.41, 6299187, 168.79,   0.30, 2575122, 2575056, 2575007, 2575084, 2575149,      69,    0.75,   0.028,    9.18,   26.88,    0.13
 82022502,2006-04-30T21:21:00.989, 1367.32, 6318194, 168.87,   0.30, 2575103, 2575070, 2575014, 2575091, 2575129,      51,    1.30,   0.027,   10.11,   24.67,    0.13
 82022503,2006-04-30T21:21:04.892, 1371.22, 6337170, 168.94,   0.30, 2575104, 2575077, 2575009, 2575087, 2575130,      48,    0.84,   0.032,   11.50,   25.76,    0.14
 82022504,2006-04-30T21:21:08.795, 1375.12, 6356147, 169.01,   0.30, 2575133, 2575096, 2575031, 2575109, 2575159,      54,    1.17,   0.030,   12.29,   29.67,    0.15
 82022505,2006-04-30T21:21:13.182, 1379.51, 6377492, 169.10,   0.30, 2575129, 2575110, 2575012, 2575090, 2575155,      74,    0.77,   0.035,   10.38,   28.14,    0.00
 82022506,2006-04-30T21:21:17.085, 1383.41, 6396559, 169.17,   0.30, 2575124, 2575082, 2575023, 2575102, 2575151,      44,    0.24,   0.031,   11.61,   24.32,    0.12
 82022507,2006-04-30T21:21:20.988, 1387.32, 6415626, 169.25,   0.30, 2575095, 2575051, 2574997, 2575076, 2575122,      53,    0.34,   0.031,    8.70,   20.82,    0.03
 82022508,2006-04-30T21:21:24.891, 1391.22, 6434633, 169.31,   0.30, 2575130, 2575055, 2575006, 2575086, 2575157,      73,    0.34,   0.029,    7.32,   20.12,    0.17
 82022509,2006-04-30T21:21:28.794, 1395.12, 6453700, 169.39,   0.30, 2575125, 2575086, 2575017, 2575097, 2575152,      68,    1.50,   0.024,    9.88,   25.24,    0.11
 82022510,2006-04-30T21:21:33.182, 1399.51, 6475135, 169.47,   0.30, 2575144, 2575087, 2575008, 2575088, 2575171,      66,    0.82,   0.027,    9.07,   26.94,    0.04
 82022511,2006-04-30T21:21:37.085, 1403.41, 6494172, 169.54,   0.30, 2575142, 2575114, 2575020, 2575101, 2575169,      82,    1.03,   0.030,    9.34,   26.29,    0.03
 82022512,2006-04-30T21:21:40.988, 1407.32, 6513298, 169.61,   0.30, 2575130, 2575087, 2575010, 2575090, 2575157,      67,    1.03,   0.029,   10.16,   26.16,    0.03
 82022513,2006-04-30T21:21:44.891, 1411.22, 6532485, 169.68,   0.30, 2575114, 2575078, 2574976, 2575058, 2575142,      81,    0.86,   0.037,    9.34,   26.17,    0.02
 82022514,2006-04-30T21:21:48.794, 1415.12, 6551582, 169.75,   0.30, 2575096, 2575063, 2574991, 2575072, 2575124,      65,    1.07,   0.032,    9.03,   24.25,    0.06
 82022515,2006-04-30T21:21:53.182, 1419.51, 6573077, 169.83,   0.30, 2575125, 2575083, 2575010, 2575092, 2575153,      67,    0.70,   0.030,    8.83,   23.98,    0.00
 82022516,2006-04-30T21:21:57.085, 1423.41, 6592174, 169.90,   0.30, 2575110, 2575095, 2575019, 2575101, 2575137,      54,    0.08,   0.029,    8.80,   19.56,    0.07
 82022517,2006-04-30T21:22:00.988, 1427.32, 6611391, 169.97,   0.30, 2575128, 2575098, 2575018, 2575101, 2575156,      62,    0.45,   0.032,   10.70,   24.04,    0.00
 82022518,2006-04-30T21:22:04.891, 1431.22, 6630517, 170.04,   0.30, 2575120, 2575114, 2575014, 2575096, 2575148,      82,    0.88,   0.027,    8.94,   27.66,    0.01
 82022519,2006-04-30T21:22:08.794, 1435.12, 6649734, 170.11,   0.30, 2575109, 2575080, 2574995, 2575079, 2575137,      68,    0.78,   0.024,    8.20,   23.67,    0.02
 82022520,2006-04-30T21:22:13.182, 1439.51, 6671379, 170.19,   0.30, 2575098, 2575076, 2575016, 2575100, 2575127,      41,    0.03,   0.025,    9.30,   20.24,    0.07
 82022521,2006-04-30T21:22:17.085, 1443.41, 6690566, 170.25,   0.30, 2575104, 2575069, 2575009, 2575093, 2575132,      48,    0.34,   0.024,    9.36,   20.98,    0.05
 82022522,2006-04-30T21:22:20.988, 1447.32, 6709752, 170.32,   0.30, 2575120, 2575084, 2575011, 2575096, 2575149,      64,    1.43,   0.027,   11.16,   28.06,    0.13
 82022523,2006-04-30T21:22:24.891, 1451.22, 6728999, 170.39,   0.30, 2575096, 2575086, 2574986, 2575070, 2575124,      74,    0.62,   0.032,    6.34,   22.95,    0.04
 82022524,2006-04-30T21:22:28.794, 1455.12, 6748216, 170.46,   0.30, 2575112, 2575087, 2575025, 2575110, 2575141,      48,    1.31,   0.024,   10.24,   24.69,    0.17
 82022525,2006-04-30T21:22:33.182, 1459.51, 6769891, 170.53,   0.30, 2575100, 2575056, 2574984, 2575069, 2575128,      65,    1.10,   0.031,    9.92,   25.12,    0.10
 82022526,2006-04-30T21:22:37.085, 1463.41, 6789167, 170.60,   0.30, 2575109, 2575052, 2574962, 2575048, 2575138,      81,    0.53,   0.026,    6.55,   22.44,    0.10
 82022527,2006-04-30T21:22:40.988, 1467.32, 6808444, 170.67,   0.30, 2575085, 2575062, 2574997, 2575083, 2575114,      50,    0.86,   0.031,   10.34,   24.00,    0.13
 82022528,2006-04-30T21:22:44.891, 1471.22, 6827691, 170.74,   0.30, 2575102, 2575080, 2574999, 2575085, 2575131,      60,    1.45,   0.033,    9.31,   26.94,    0.13
 82022529,2006-04-30T21:22:48.794, 1475.12, 6847057, 170.81,   0.30, 2575084, 2575062, 2574970, 2575057, 2575113,      68,    0.27,   0.028,    7.76,   19.51,    0.12
 82022530,2006-04-30T21:22:53.182, 1479.51, 6868792, 170.88,   0.30, 2575095, 2575081, 2574977, 2575065, 2575124,      80,    0.67,   0.024,    7.24,   24.05,    0.10
 82022531,2006-04-30T21:22:57.085, 1483.41, 6888039, 170.94,   0.30, 2575100, 2575060, 2574970, 2575057, 2575129,      76,    1.03,   0.028,    7.77,   25.73,    0.03
 82022532,2006-04-30T21:23:00.988, 1487.32, 6907376, 171.01,   0.30, 2575070, 2575059, 2574965, 2575053, 2575100,      74,    0.74,   0.032,    7.53,   25.43,    0.01
 82022533,2006-04-30T21:23:04.891, 1491.22, 6926712, 171.07,   0.30, 2575088, 2575059, 2574983, 2575072, 2575118,      67,    1.10,   0.031,    7.11,   23.88,    0.05
 82022534,2006-04-30T21:23:08.794, 1495.12, 6946019, 171.14,   0.30, 2575080, 2575065, 2574965, 2575054, 2575109,      79,    0.61,   0.030,    5.87,   22.40,    0.08
 82022535,2006-04-30T21:23:13.182, 1499.51, 6967844, 171.21,   0.30, 2575078, 2575039, 2574967, 2575057, 2575107,      62,    1.01,   0.029,    8.11,   24.23,    0.08
 82022536,2006-04-30T21:23:17.085, 1503.41, 6987180, 171.27,   0.30, 2575106, 2575071, 2574979, 2575068, 2575136,      75,    0.72,   0.028,    8.67,   25.45,    0.00
 82022537,2006-04-30T21:23:20.988, 1507.32, 7006697, 171.34,   0.30, 2575061, 2575043, 2574953, 2575043, 2575092,      61,   -0.12,   0.027,    4.53,   17.51,    1.42
 82022538,2006-04-30T21:23:24.891, 1511.22, 7025944, 171.40,   0.30, 2575095, 2575076, 2574984, 2575075, 2575125,      78,    1.10,   0.027,    7.91,   25.25,    0.02
 82022539,2006-04-30T21:23:28.794, 1515.12, 7045430, 171.47,   0.30, 2575071, 2575020, 2574949, 2575040, 2575101,      67,    0.24,   0.028,    5.90,   19.21,    0.10
 82022540,2006-04-30T21:23:33.182, 1519.51, 7067225, 171.54,   0.31, 2575080, 2575063, 2574960, 2575051, 2575111,      81,    0.92,   0.032,    6.33,   23.76,    0.02
 82022541,2006-04-30T21:23:37.085, 1523.41, 7086622, 171.60,   0.31, 2575085, 2575055, 2574958, 2575050, 2575115,      73,    0.99,   0.035,    7.86,   25.08,    0.07
 82022542,2006-04-30T21:23:40.988, 1527.32, 7106048, 171.67,   0.30, 2575077, 2575058, 2574958, 2575050, 2575108,      87,    1.34,   0.030,    7.92,   24.04,    0.05
 82022543,2006-04-30T21:23:44.891, 1531.22, 7125505, 171.73,   0.30, 2575079, 2575065, 2574955, 2575047, 2575110,      87,    1.10,   0.027,    7.81,   24.73,    0.04
 82022544,2006-04-30T21:23:48.794, 1535.12, 7145021, 171.79,   0.30, 2575053, 2575008, 2574942, 2575035, 2575084,      50,    0.34,   0.029,    5.46,   21.34,    0.06
 82022545,2006-04-30T21:23:53.181, 1539.51, 7166846, 171.86,   0.30, 2575085, 2575060, 2574972, 2575065, 2575116,      75,    1.24,   0.025,    9.70,   27.47,    0.09
 82022546,2006-04-30T21:23:57.084, 1543.41, 7186362, 171.92,   0.30, 2575080, 2575052, 2574989, 2575082, 2575111,      48,   -0.32,   0.024,    8.05,   19.77,    0.01
 82022547,2006-04-30T21:24:00.987, 1547.31, 7205849, 171.98,   0.31, 2575084, 2575021, 2574912, 2575005, 2575115,     103,    0.66,   0.029,    5.77,   21.71,    0.14
 82022548,2006-04-30T21:24:04.890, 1551.22, 7225395, 172.04,   0.31, 2575045, 2574992, 2574921, 2575015, 2575076,      80,    0.62,   0.031,    5.79,   18.83,    0.10
 82022549,2006-04-30T21:24:08.793, 1555.12, 7244792, 172.10,   0.31, 2575083, 2575080, 2574959, 2575053, 2575114,      94,    1.01,   0.031,    7.83,   25.09,    0.01
 82022550,2006-04-30T21:24:13.181, 1559.51, 7266827, 172.17,   0.31, 2575069, 2575014, 2574931, 2575026, 2575101,      70,    0.54,   0.030,    6.82,   22.15,    0.01
 82022551,2006-04-30T21:24:17.084, 1563.41, 7286283, 172.24,   0.31, 2575059, 2575053, 2574949, 2575044, 2575091,      87,    1.35,   0.032,    7.21,   22.95,    0.07
 82022552,2006-04-30T21:24:20.987, 1567.31, 7305800, 172.29,   0.31, 2575074, 2575068, 2574956, 2575052, 2575106,      86,    1.22,   0.031,    8.57,   27.24,    0.07
 82022553,2006-04-30T21:24:24.890, 1571.22, 7325346, 172.35,   0.31, 2575075, 2575036, 2574946, 2575042, 2575107,      76,    0.66,   0.029,    8.02,   23.21,    0.00
 82022554,2006-04-30T21:24:28.793, 1575.12, 7344893, 172.41,   0.31, 2575063, 2575065, 2574953, 2575050, 2575095,      89,    0.97,   0.030,    7.37,   23.99,    0.01
 82022555,2006-04-30T21:24:33.181, 1579.51, 7366898, 172.48,   0.30, 2575051, 2575015, 2574921, 2575018, 2575083,      81,    0.83,   0.026,    5.11,   19.43,    0.03
 82022556,2006-04-30T21:24:37.084, 1583.41, 7386474, 172.54,   0.30, 2575050, 2575019, 2574940, 2575037, 2575083,      69,    1.08,   0.026,    8.41,   23.38,    0.08
 82022557,2006-04-30T21:24:40.987, 1587.31, 7406020, 172.60,   0.31, 2575074, 2575055, 2574950, 2575048, 2575106,      96,    1.41,   0.027,    7.29,   24.06,    0.04
 82022558,2006-04-30T21:24:44.890, 1591.22, 7425657, 172.66,   0.30, 2575054, 2575030, 2574952, 2575050, 2575086,      63,    0.84,   0.023,    8.00,   21.70,    0.07
 82022559,2006-04-30T21:24:48.793, 1595.12, 7445263, 172.72,   0.30, 2575043, 2575009, 2574925, 2575024, 2575075,      68,    0.25,   0.023,    5.22,   19.11,    0.12
 82022560,2006-04-30T21:24:53.181, 1599.51, 7467238, 172.79,   0.30, 2575050, 2575052, 2574931, 2575030, 2575083,      94,    0.74,   0.023,    6.75,   25.13,    0.06
 82022561,2006-04-30T21:24:57.084, 1603.41, 7486874, 172.84,   0.31, 2575035, 2575019, 2574926, 2575025, 2575068,      81,    1.40,   0.026,    9.51,   26.77,    0.09
 82022562,2006-04-30T21:25:00.987, 1607.31, 7506481, 172.90,   0.30, 2575051, 2575035, 2574936, 2575036, 2575084,      78,    0.90,   0.021,    7.57,   22.95,    0.00
 82022563,2006-04-30T21:25:04.890, 1611.22, 7526207, 172.96,   0.30, 2575024, 2575017, 2574914, 2575014, 2575057,      84,    1.07,   0.026,    7.72,   24.78,    0.03
 82022564,2006-04-30T21:25:08.793, 1615.12, 7545814, 173.02,   0.30, 2575027, 2575004, 2574920, 2575020, 2575060,      68,    0.76,   0.025,    6.85,   21.07,    0.01
 82022565,2006-04-30T21:25:13.181, 1619.51, 7567908, 173.08,   0.31, 2575026, 2574988, 2574891, 2574992, 2575060,      78,    0.61,   0.026,    4.07,   22.49,    0.02
 82022566,2006-04-30T21:25:17.181, 1623.51, 7588054, 173.13,   0.31, 2575041, 2575000, 2574927, 2575028, 2575075,      59,    0.70,   0.029,    8.24,   23.58,    0.11
 82022567,2006-04-30T21:25:21.084, 1627.41, 7607661, 173.20,   0.31, 2575049, 2575039, 2574945, 2575047, 2575082,      75,    0.97,   0.026,    8.82,   26.24,    0.10
 82022568,2006-04-30T21:25:24.987, 1631.31, 7627387, 173.26,   0.30, 2575042, 2575004, 2574925, 2575027, 2575076,      67,    1.21,   0.019,    8.64,   23.91,    0.11
 82022569,2006-04-30T21:25:28.890, 1635.22, 7647054, 173.31,   0.30, 2575036, 2575006, 2574912, 2575014, 2575070,      79,    0.99,   0.024,    8.63,   26.27,    0.09
 82022570,2006-04-30T21:25:32.793, 1639.12, 7666720, 173.36,   0.31, 2575039, 2575029, 2574923, 2575026, 2575072,      87,    0.95,   0.027,    7.23,   23.99,    0.01
 82022571,2006-04-30T21:25:37.181, 1643.51, 7688875, 173.42,   0.30, 2575027, 2575023, 2574907, 2575010, 2575061,     108,    1.31,   0.024,    6.11,   24.74,    0.06
 82022572,2006-04-30T21:25:41.084, 1647.41, 7708601, 173.48,   0.31, 2575031, 2575010, 2574905, 2575009, 2575065,      84,    0.83,   0.028,    6.03,   20.14,    0.04
 82022573,2006-04-30T21:25:44.987, 1651.31, 7728297, 173.54,   0.31, 2575022, 2575020, 2574871, 2574975, 2575056,     107,    0.48,   0.034,    5.68,   22.96,    0.26
 82022574,2006-04-30T21:25:48.890, 1655.22, 7748054, 173.59,   0.31, 2575035, 2574991, 2574897, 2575001, 2575069,      85,    1.09,   0.031,    8.16,   24.99,    0.07
 82022575,2006-04-30T21:25:52.793, 1659.12, 7767810, 173.65,   0.31, 2575027, 2574988, 2574908, 2575013, 2575061,      69,    1.12,   0.026,    7.89,   22.09,    0.08
 82022576,2006-04-30T21:25:57.181, 1663.51, 7789995, 173.71,   0.31, 2575032, 2575002, 2574906, 2575011, 2575066,      79,    0.69,   0.024,    7.87,   20.64,    0.00
 82022577,2006-04-30T21:26:01.084, 1667.41, 7809751, 173.77,   0.31, 2575048, 2574999, 2574897, 2575003, 2575082,      90,    0.82,   0.027,    6.45,   22.79,    0.01
 82022578,2006-04-30T21:26:04.987, 1671.31, 7829507, 173.82,   0.31, 2575034, 2575007, 2574920, 2575026, 2575068,      73,    1.02,   0.026,    8.45,   23.79,    0.10
 82022579,2006-04-30T21:26:08.890, 1675.22, 7849264, 173.88,   0.31, 2575020, 2574972, 2574891, 2574997, 2575055,      71,    0.23,   0.029,    6.57,   19.60,    0.11
 82022580,2006-04-30T21:26:12.793, 1679.12, 7869020, 173.93,   0.31, 2575037, 2575013, 2574922, 2575029, 2575072,      82,    1.38,   0.028,    9.55,   26.93,    0.15
 82022581,2006-04-30T21:26:17.181, 1683.51, 7891264, 173.99,   0.31, 2575034, 2575004, 2574911, 2575019, 2575069,      72,    0.73,   0.026,    7.73,   23.57,    0.05
 82022582,2006-04-30T21:26:21.084, 1687.41, 7911111, 174.04,   0.31, 2575022, 2574983, 2574914, 2575022, 2575057,      52,    0.13,   0.026,    6.45,   19.20,    0.01
 82022583,2006-04-30T21:26:24.987, 1691.31, 7930867, 174.10,   0.31, 2575010, 2574985, 2574862, 2574970, 2575045,     109,    0.89,   0.026,    6.61,   22.71,    0.03
 82022584,2006-04-30T21:26:28.890, 1695.22, 7950713, 174.15,   0.31, 2575028, 2575016, 2574899, 2575008, 2575064,      89,    0.83,   0.024,    9.04,   26.12,    0.02
 82022585,2006-04-30T21:26:32.793, 1699.12, 7970470, 174.20,   0.31, 2575017, 2574977, 2574884, 2574993, 2575052,      79,    0.47,   0.023,    7.30,   20.39,    0.03
 82022586,2006-04-30T21:26:37.180, 1703.51, 7992774, 174.26,   0.31, 2575038, 2575021, 2574893, 2575002, 2575073,     107,    0.85,   0.025,    8.58,   25.35,    0.03
 82022587,2006-04-30T21:26:41.083, 1707.41, 8012620, 174.32,   0.31, 2575042, 2575002, 2574880, 2574990, 2575078,      95,    0.51,   0.024,    6.72,   22.47,    0.09
 82022588,2006-04-30T21:26:44.986, 1711.31, 8032467, 174.37,   0.31, 2575024, 2575018, 2574922, 2575032, 2575059,      65,    0.44,   0.033,    8.24,   20.06,    0.02
 82022589,2006-04-30T21:26:48.889, 1715.22, 8052223, 174.42,   0.32, 2575035, 2575026, 2574902, 2575013, 2575071,     106,    0.96,   0.034,    8.64,   26.41,    0.02
 82022590,2006-04-30T21:26:52.792, 1719.12, 8072189, 174.47,   0.32, 2575024, 2574954, 2574864, 2574976, 2575059,      99,    0.49,   0.035,    6.33,   19.84,    0.15
 82022591,2006-04-30T21:26:57.180, 1723.51, 8094464, 174.53,   0.31, 2575023, 2574966, 2574891, 2575002, 2575059,      70,    0.50,   0.030,    8.27,   22.68,    0.03
 82022592,2006-04-30T21:27:01.083, 1727.41, 8114370, 174.58,   0.31, 2574997, 2574940, 2574868, 2574980, 2575034,      62,    0.02,   0.030,    6.86,   19.85,    0.00
 82022593,2006-04-30T21:27:04.986, 1731.31, 8134216, 174.63,   0.31, 2575024, 2575004, 2574902, 2575014, 2575060,      86,    1.27,   0.030,    9.38,   26.46,    0.08
 82022594,2006-04-30T21:27:08.889, 1735.22, 8154063, 174.68,   0.31, 2575027, 2574997, 2574884, 2574997, 2575063,      97,    1.05,   0.031,    7.24,   23.11,    0.00
 82022595,2006-04-30T21:27:12.792, 1739.12, 8173969, 174.74,   0.31, 2575023, 2574980, 2574879, 2574992, 2575059,      86,    0.87,   0.029,    8.25,   24.10,    0.03
 82022596,2006-04-30T21:27:17.180, 1743.51, 8196363, 174.80,   0.31, 2575013, 2574964, 2574851, 2574964, 2575049,     101,    0.78,   0.028,    6.36,   21.86,    0.04
 82022597,2006-04-30T21:27:21.083, 1747.41, 8216240, 174.84,   0.31, 2574986, 2574966, 2574859, 2574973, 2575022,      87,    0.96,   0.026,    8.17,   23.50,    0.04
 82022598,2006-04-30T21:27:24.986, 1751.31, 8236116, 174.89,   0.31, 2575033, 2575004, 2574879, 2574994, 2575070,      98,    0.67,   0.025,    7.62,   21.80,    0.10
 82022599,2006-04-30T21:27:28.889, 1755.22, 8256112, 174.95,   0.32, 2575005, 2574978, 2574902, 2575017, 2575041,      56,    0.33,   0.033,    9.11,   22.05,    0.07
 82022600,2006-04-30T21:27:32.792, 1759.12, 8275958, 174.99,   0.32, 2575028, 2575016, 2574918, 2575033, 2575065,      82,    1.37,   0.032,   11.52,   29.56,    0.14
 82022601,2006-04-30T21:27:37.180, 1763.51, 8298353, 175.05,   0.31, 2575026, 2575015, 2574881, 2574997, 2575064,     112,    1.04,   0.026,    9.12,   26.70,    0.01
 82022602,2006-04-30T21:27:41.083, 1767.41, 8318259, 175.10,   0.31, 2575027, 2575023, 2574888, 2575004, 2575064,     108,    0.76,   0.026,    8.87,   25.49,    0.04
 82022603,2006-04-30T21:27:44.986, 1771.31, 8338315, 175.15,   0.31, 2575005, 2574930, 2574853, 2574970, 2575042,      69,    1.01,   0.026,    9.03,   24.37,    0.15